{"data":{"norad_id":63455,"intl_designator":"2025-069Y","name":"STARLINK-33761","alt_names":[],"object_type":"PAYLOAD","status":"ACTIVE","operator":null,"country":"US","launch_date":"2025-04-04","launch_site_code":"AFWTR","launch_vehicle":null,"mission":null,"orbit_class":"UNKNOWN","rcs_meters":null,"size_class":null,"mass_kg":null,"dimensions":null,"purposes":["comms"],"wikipedia_slug":null,"has_3d_model":false,"image_url":null,"decayed_at":null,"tle_current":{"epoch":"2026-09-20T10:35:17.292768Z","epoch_age_seconds":160592,"freshness":"FRESH","line1":"1 63455U 25069Y   26263.44117237  .00008809  00000+0  27153-3 0  9998","line2":"2 63455  53.1597 309.9294 0001237 100.9864 259.1278 15.34402336 83334","mean_motion":15.34402336,"eccentricity":0.0001237,"inclination_deg":53.1597,"raan_deg":309.9294,"arg_perigee_deg":100.9864,"mean_anomaly_deg":259.1278,"bstar":0.00027153,"rev_number":8333,"period_min":93.847615205925,"perigee_km":461.85008605277,"apogee_km":463.54250821048,"semimajor_km":6840.8332971316,"source":"CELESTRAK","updated_at":"2026-09-21T09:00:35.005971Z"}}}